Weather History for Memphis, TN

Change the Weather History Date:

Sunday, October 14, 2012

  Actual Average Record
Temperature  
Mean Temperature 69 °F 65 °F  
Max Temperature 77 °F 75 °F 90 °F (1963)
Min Temperature 60 °F 54 °F 39 °F (1946)
Degree Days  
Heating Degree Days 0 3  
Month to date heating degree days 56 31  
Since 1 July heating degree days 58 42  
Cooling Degree Days 4 3  
Month to date cooling degree days 26 58  
Year to date cooling degree days 2580 2209  
Growing Degree Days 20 (Base 50)    
Moisture  
Dew Point 62 °F    
Average Humidity 81    
Maximum Humidity 93    
Minimum Humidity 68    
Precipitation  
Precipitation 0.37 in 0.13 in 1.87 in (1919)
Month to date precipitation 1.78 1.66  
Year to date precipitation 28.39 40.13  
Snow  
Snow 0.00 in 0.00 in 0.00 in (2002)
Month to date snowfall 0.0 0.0  
Since 1 July snowfall 0.0 0.0  
Since 1 September snowfall 0.0 0.0  
Snow Depth 0.00 in    
Sea Level Pressure  
Sea Level Pressure 29.95 in    
Wind  
Wind Speed 12 mph (SW)    
Max Wind Speed 29 mph    
Max Gust Speed 39 mph    
Visibility 9 miles    
Events Rain    
T = Trace of Precipitation, MM = Missing Value Source: NWS Daily Summary

Daily Weather History Graph

Daily Weather History Graph

Search for Another Location

Airport:

Trip Planner

Search our weather history database for the weather conditions in past years. The results will help you decide how hot, cold, wet, or windy it might be!

Date:

Astronomy

Oct. 14, 2012 Rise Set
Actual Time 7:05 AM CDT 6:25 PM CDT
Civil Twilight 6:39 AM CDT 6:51 PM CDT
Nautical Twilight 6:10 AM CDT 7:20 PM CDT
Astronomical Twilight 5:41 AM CDT 7:49 PM CDT
Moon 6:05 AM CDT (10/14) 5:46 PM CDT (10/14)
Length of Visible Light 12h 11m
Length of Day
11h 20m
Waning Crescent, 1% of the Moon is Illuminated
Oct 14
Waning Crescent
Oct 15
New
Oct 21
First Quarter
Oct 29
Full
Nov 6
Last Quarter

Hourly Weather History & Observations

Time (CDT) Temp. Dew Point Humidity Pressure Visibility Wind Dir Wind Speed Gust Speed Precip Events Conditions
12:54 AM 73.0 °F 62.1 °F 68% 29.94 in 10.0 mi South 15.0 mph - N/A   Overcast
1:54 AM 72.0 °F 63.0 °F 73% 29.93 in 10.0 mi South 18.4 mph - N/A   Overcast
2:54 AM 73.0 °F 64.0 °F 73% 29.95 in 10.0 mi South 11.5 mph 25.3 mph N/A   Overcast
3:04 AM 73.4 °F 64.4 °F 73% 29.96 in 10.0 mi SSW 11.5 mph 26.5 mph N/A   Overcast
3:54 AM 73.9 °F 64.9 °F 73% 29.95 in 10.0 mi SSW 18.4 mph 32.2 mph N/A   Overcast
4:54 AM 73.0 °F 66.0 °F 79% 29.98 in 10.0 mi SSW 17.3 mph 26.5 mph 0.00 in   Overcast
5:44 AM 69.8 °F 60.8 °F 73% 30.01 in 1.2 mi WSW 25.3 mph 39.1 mph N/A   Mostly Cloudy
5:48 AM 66.2 °F 62.6 °F 88% 30.00 in 1.2 mi SW 16.1 mph 39.1 mph 0.00 in Rain Heavy Rain
5:54 AM 66.0 °F 62.1 °F 87% 29.99 in 1.2 mi SW 13.8 mph 26.5 mph 0.14 in Rain Heavy Rain
5:57 AM 66.2 °F 62.6 °F 88% 29.99 in 3.0 mi SSW 11.5 mph 21.9 mph N/A Rain Heavy Rain
6:54 AM 64.9 °F 62.1 °F 90% 29.98 in 6.0 mi South 18.4 mph 23.0 mph 0.13 in Rain Rain
7:54 AM 64.9 °F 62.1 °F 90% 29.98 in 5.0 mi South 20.7 mph 29.9 mph 0.09 in Rain Rain
8:54 AM 66.0 °F 62.1 °F 87% 29.93 in 10.0 mi South 23.0 mph 29.9 mph 0.01 in   Overcast
9:54 AM 66.9 °F 61.0 °F 81% 29.97 in 10.0 mi SSW 12.7 mph 21.9 mph N/A   Mostly Cloudy
10:54 AM 69.1 °F 62.1 °F 78% 29.97 in 10.0 mi SSW 16.1 mph 28.8 mph N/A   Mostly Cloudy
11:54 AM 71.1 °F 62.1 °F 73% 29.94 in 10.0 mi SSW 19.6 mph 29.9 mph N/A   Mostly Cloudy
12:38 PM 71.6 °F 62.6 °F 73% 29.95 in 10.0 mi SW 11.5 mph 24.2 mph N/A   Mostly Cloudy
12:54 PM 72.0 °F 62.1 °F 71% 29.94 in 10.0 mi SW 18.4 mph 27.6 mph N/A   Overcast
1:54 PM 75.0 °F 64.0 °F 69% 29.91 in 10.0 mi WSW 17.3 mph 27.6 mph 0.00 in   Mostly Cloudy
2:09 PM 75.2 °F 64.4 °F 69% 29.92 in 10.0 mi SW 19.6 mph 29.9 mph N/A   Mostly Cloudy
2:37 PM 73.4 °F 64.4 °F 73% 29.91 in 10.0 mi SW 11.5 mph 28.8 mph N/A   Overcast
2:54 PM 73.9 °F 64.0 °F 71% 29.91 in 10.0 mi SW 12.7 mph 21.9 mph N/A   Overcast
3:54 PM 75.9 °F 64.9 °F 69% 29.90 in 10.0 mi SW 16.1 mph 27.6 mph N/A   Mostly Cloudy
4:31 PM 77.0 °F 64.4 °F 65% 29.91 in 10.0 mi WSW 16.1 mph 25.3 mph N/A   Scattered Clouds
4:52 PM 75.2 °F 64.4 °F 69% 29.91 in 10.0 mi WSW 10.4 mph 19.6 mph N/A   Mostly Cloudy
4:54 PM 75.9 °F 64.9 °F 69% 29.90 in 10.0 mi WSW 12.7 mph 19.6 mph N/A   Mostly Cloudy
5:54 PM 75.0 °F 64.0 °F 69% 29.91 in 10.0 mi WSW 6.9 mph - N/A   Mostly Cloudy
6:54 PM 72.0 °F 61.0 °F 68% 29.93 in 10.0 mi West 4.6 mph - N/A   Partly Cloudy
7:54 PM 70.0 °F 60.1 °F 71% 29.94 in 10.0 mi Calm Calm - N/A   Clear
8:54 PM 66.9 °F 59.0 °F 76% 29.96 in 10.0 mi West 3.5 mph - N/A   Partly Cloudy
9:54 PM 66.9 °F 59.0 °F 76% 29.97 in 10.0 mi Calm Calm - N/A   Partly Cloudy
10:54 PM 63.0 °F 59.0 °F 87% 29.98 in 10.0 mi West 3.5 mph - N/A   Partly Cloudy
11:54 PM 62.1 °F 57.9 °F 86% 29.98 in 10.0 mi Calm Calm - N/A   Partly Cloudy